Regional Weather Roundup
Issued by NWS Kansas City/Pleasant Hill, MO

Home | Current Version | Previous Version | Graphics & Text | Print | Product List | Glossary Off
Versions: 1 2 3 4 5 6 7 8 9 10 11 12 13 14 15 16 17 18 19 20 21 22 23 24 25 26 27 28 29 30 31 32 33 34 35 36 37 38 39 40 41 42 43 44 45 46 47 48 49 50

000
ASUS43 KEAX 210604
RWREAX

WEATHER ROUNDUP FOR EASTERN KANSAS AND NORTHWEST MISSOURI
NATIONAL WEATHER SERVICE KANSAS CITY/PLEASANT HILL MO
100 AM CDT THU AUG 21 2014

KSZ040-057-103>105-MOZ028-029-037-043-210700-
...KANSAS CITY METROPOLITAN AREA...

CITY           SKY/WX    TMP DP  RH WIND       PRES   REMARKS
K.C. INTL      FAIR      80  68  66 S14       29.90S
6HR MIN TEMP:  79; 6HR MAX TEMP:  88;

K.C. DOWNTOWN  FAIR      83  67  58 S12G18    29.89S
6HR MIN TEMP:  82; 6HR MAX TEMP:  91;

LEES SUMMIT    FAIR      79  66  64 S10G17    29.92S
6HR MIN TEMP:  79; 6HR MAX TEMP:  89;

OLATHE - IXD   FAIR      78  67  68 S10       29.91S
6HR MIN TEMP:  78; 6HR MAX TEMP:  90;

OLATHE - OJC   FAIR      77  67  71 S12       29.91S
6HR MIN TEMP:  76; 6HR MAX TEMP:  87;

LAWRENCE       FAIR      83  68  60 S9        29.89S

$$

MOZ001>008-011>017-020>025-030>033-038>040-044>046-053-054-210700-
...NORTHERN AND CENTRAL MISSOURI...

CITY           SKY/WX    TMP DP  RH WIND       PRES   REMARKS
ST. JOSEPH     FAIR      80  69  69 S9        29.87S
6HR MIN TEMP:  79; 6HR MAX TEMP:  87;

MOSBY          FAIR      81  66  61 S6        29.90S
WHITEMAN AFB   FAIR      74  62  67 S8        29.93S
6HR MIN TEMP:  73; 6HR MAX TEMP:  85;

CLINTON        FAIR      75  66  73 CALM      29.95R
SEDALIA        FAIR      78  65  63 S9        29.96R
6HR MIN TEMP:  78; 6HR MAX TEMP:  85;

WARSAW         NOT AVBL
MARSHALL       FAIR      79  72  78 S7        29.94S
CHILLICOTHE      N/A     79  70  74 S5        29.91S
6HR MIN TEMP:  79; 6HR MAX TEMP:  88;

MOBERLY        FAIR      77  68  73 S9        29.95S
KIRKSVILLE     FAIR      77  71  82 S8        29.93R
6HR MIN TEMP:  76; 6HR MAX TEMP:  85;


$$

MOZ041-047>049-056>058-063>065-088>090-097-210700-
...EASTERN AND SOUTHERN MISSOURI...

CITY           SKY/WX    TMP DP  RH WIND       PRES   REMARKS
ST. LOUIS INTL FAIR      76  72  87 E6        29.98R
6HR MIN TEMP:  75; 6HR MAX TEMP:  86; 6HR PCP:  0.02;

SPIRIT OF STL  FAIR      72  71  97 CALM      29.95S
COLUMBIA       FAIR      73  70  90 SE6       29.97R
JEFFERSON CITY FAIR      73  70  90 SE5       29.96R
MEXICO         FAIR     N/A N/A N/A S7        29.96R
ROLLA          FAIR      74  64  71 S9        29.98S
LEBANON        FAIR      77  64  65 S8        30.01R
OSAGE BEACH    FAIR      75  64  69 S5        29.98R
SPRINGFIELD    FAIR      77  66  68 S14       30.00R
BRANSON        FAIR      75  66  73 CALM      30.03S
NEVADA         FAIR      73  63  68 S9        29.96S
JOPLIN         FAIR      79  67  66 S14       29.97R
WEST PLAINS    FAIR      78  65  63 SW8       30.05S

$$

IAZ060-094-KSZ022-034>040-054-083-096-NEZ052-066-093-210700-
...KANSAS...SOUTHEAST NEBRASKA AND IOWA...

CITY           SKY/WX    TMP DP  RH WIND       PRES   REMARKS
TOPEKA         FAIR      83  70  64 S12       29.87R
6HR MIN TEMP:  83; 6HR MAX TEMP:  93;

MANHATTAN      FAIR      84  66  54 S17G29    29.83R
EMPORIA        FAIR      79  69  71 S20       29.88R
CHANUTE        FAIR      79  68  69 S13       29.93R
WICHITA        FAIR      81  66  60 S16       29.88R
OMAHA          FAIR      80  72  76 S13       29.79R
LINCOLN        FAIR      83  68  60 S16       29.77S
FALLS CITY     FAIR      81  68  64 S12       29.83R
LAMONI         FAIR      78  72  81 S10       29.88S
DES MOINES     FAIR      77  73  87 SE5       29.84F

$$




USA.gov is the U.S. government's official web portal to all federal, state and local government web resources and services.